Norwood, MA

9:43 AM EDT on August 30, 2016 (GMT -0400)
Norwood Memorial

Weather History for KOWD - March, 2013

Change the Weather History Date:

Friday, March 1, 2013

  Actual Average Record
Temperature  
Mean Temperature 38 °F -  
Max Temperature 42 °F 40 °F 55 °F (2004)
Min Temperature 33 °F 23 °F -11 °F (2015)
Degree Days  
Heating Degree Days 28    
Moisture  
Dew Point 30 °F    
Average Humidity 77    
Maximum Humidity 100    
Minimum Humidity 53    
Precipitation  
Precipitation 0.00 in - - ()
Sea Level Pressure  
Sea Level Pressure 29.59 in    
Wind  
Wind Speed 2 mph (NNW)    
Max Wind Speed 12 mph    
Max Gust Speed 18 mph    
Visibility 9 miles    
Events      
Averages and records for this station are not official NWS values.
T = Trace of Precipitation, MM = Missing Value Source: NWS Daily Summary

Daily Weather History Graph

Daily Weather History Graph

Search for Another Location

Airport or City:

Trip Planner

Search our weather history database for the weather conditions in past years. The results will help you decide how hot, cold, wet, or windy it might be!

Date:

Astronomy

Mar. 01, 2013 Rise Set
Actual Time 6:19 AM EST 5:34 PM EST
Civil Twilight 5:51 AM EST 6:03 PM EST
Nautical Twilight 5:19 AM EST 6:35 PM EST
Astronomical Twilight 4:46 AM EST 7:08 PM EST
Moon 10:11 PM EST (3/1) 7:58 AM EST (3/1)
Length of Visible Light 12h 11m
Length of Day
11h 15m
Waning Gibbous, 83% of the Moon is Illuminated
Mar 1
Waning Gibbous
Mar 4
Last Quarter
Mar 11
New
Mar 19
First Quarter
Mar 27
Full

Hourly Weather History & Observations

Time (EST) Temp. Windchill Dew Point Humidity Pressure Visibility Wind Dir Wind Speed Gust Speed Precip Events Conditions
12:05 AM 33.8 °F - 32.0 °F 93% 29.52 in 7.0 mi Calm Calm - N/A   Overcast
12:29 AM 33.8 °F - 33.8 °F 100% 29.53 in 6.0 mi Calm Calm - N/A   Overcast
12:37 AM 33.8 °F - 33.8 °F 100% 29.53 in 6.0 mi Calm Calm - N/A   Overcast
12:46 AM 33.8 °F - 33.8 °F 100% 29.53 in 7.0 mi Calm Calm - N/A   Overcast
12:53 AM 34.0 °F - 33.1 °F 96% 29.53 in 7.0 mi Calm Calm - N/A   Overcast
1:53 AM 34.0 °F - 33.1 °F 96% 29.53 in 9.0 mi Calm Calm - N/A   Overcast
2:14 AM 35.6 °F 32.8 °F 33.8 °F 93% 29.52 in 10.0 mi North 3.5 mph - N/A   Overcast
2:33 AM 35.6 °F 31.7 °F 35.6 °F 100% 29.53 in 10.0 mi NNW 4.6 mph - N/A   Overcast
2:50 AM 37.4 °F - 35.6 °F 93% 29.53 in 10.0 mi Calm Calm - N/A   Overcast
2:53 AM 37.0 °F 34.5 °F 35.1 °F 93% 29.53 in 10.0 mi NNW 3.5 mph - N/A   Overcast
3:11 AM 37.4 °F - 35.6 °F 93% 29.53 in 10.0 mi Calm Calm - N/A   Overcast
3:32 AM 37.4 °F - 35.6 °F 93% 29.53 in 10.0 mi Calm Calm - N/A   Overcast
3:53 AM 37.0 °F - 34.0 °F 89% 29.54 in 10.0 mi Calm Calm - N/A   Overcast
4:53 AM 37.0 °F - 34.0 °F 89% 29.55 in 10.0 mi Calm Calm - N/A   Overcast
5:53 AM 36.0 °F - 32.0 °F 86% 29.56 in 10.0 mi Calm Calm - N/A   Overcast
7:53 AM 37.0 °F 33.3 °F 34.0 °F 89% 29.60 in 10.0 mi WNW 4.6 mph - N/A   Partly Cloudy
8:53 AM 39.9 °F 35.1 °F 30.0 °F 68% 29.61 in 10.0 mi NNW 6.9 mph - N/A   Mostly Cloudy
9:53 AM 41.0 °F 34.3 °F 28.0 °F 60% 29.61 in 10.0 mi North 11.5 mph 18.4 mph N/A   Overcast
10:53 AM 42.1 °F 37.7 °F 27.0 °F 55% 29.62 in 10.0 mi NNW 6.9 mph - N/A   Overcast
12:53 PM 42.1 °F 36.1 °F 26.1 °F 53% 29.61 in 10.0 mi NNW 10.4 mph - N/A   Overcast
1:53 PM 42.1 °F 35.7 °F 26.1 °F 53% 29.61 in 10.0 mi NNW 11.5 mph 16.1 mph N/A   Overcast
2:53 PM 42.1 °F 37.1 °F 26.1 °F 53% 29.62 in 10.0 mi North 8.1 mph - N/A   Overcast
3:53 PM 41.0 °F 35.2 °F 26.1 °F 55% 29.63 in 10.0 mi NNW 9.2 mph - N/A   Overcast
4:53 PM 39.9 °F 35.8 °F 25.0 °F 55% 29.65 in 10.0 mi NW 5.8 mph - N/A   Overcast
5:53 PM 39.0 °F - 25.0 °F 57% 29.66 in 10.0 mi Calm Calm - N/A   Overcast
6:53 PM 39.0 °F - 26.1 °F 60% 29.67 in 10.0 mi Calm Calm - N/A   Overcast
7:53 PM 37.9 °F 35.5 °F 27.0 °F 65% 29.67 in 10.0 mi NNW 3.5 mph - N/A   Overcast
8:53 PM 37.9 °F 33.5 °F 26.1 °F 62% 29.68 in 10.0 mi NNW 5.8 mph - N/A   Overcast
9:53 PM 37.9 °F 33.5 °F 26.1 °F 62% 29.68 in 10.0 mi NW 5.8 mph - N/A   Overcast
10:53 PM 37.0 °F 32.4 °F 26.1 °F 65% 29.68 in 10.0 mi NW 5.8 mph - N/A   Overcast
11:53 PM 37.0 °F 31.6 °F 26.1 °F 65% 29.67 in 10.0 mi NNW 6.9 mph - N/A   Overcast